Oak Ridge, TN

6:44 PM EST on November 18, 2019 (GMT -0500)
Oak Ridge

Weather History for KOQT - September, 2019

Change the Weather History Date:

Sunday, September 22, 2019

  Actual Average (KTYS) Record (KTYS)
Temperature  
Mean Temperature 75 °F -  
Max Temperature 89 °F 78 °F 96 °F (1931)
Min Temperature 62 °F 58 °F 38 °F (1983)
Cooling Degree Days 10    
Growing Degree Days 25 (Base 50)    
Moisture  
Dew Point 58 °F    
Average Humidity 60    
Maximum Humidity 87    
Minimum Humidity 31    
Precipitation  
Precipitation 0.00 in - - ()
Sea Level Pressure  
Sea Level Pressure 30.15 in    
Wind  
Wind Speed 1 mph ()    
Max Wind Speed 6 mph    
Max Gust Speed -    
Visibility 10.0 miles    
Events      
Averages and records for this station are not official NWS values.
T = Trace of Precipitation, MM = Missing Value Source: Averaged Metar Reports

Daily Weather History Graph

Daily Weather History Graph

Search for Another Location

Airport or City:

Astronomy

Sep. 22, 2019 Rise Set
Actual Time 7:24 AM EDT 7:34 PM EDT
Civil Twilight 6:59 AM EDT 7:59 PM EDT
Nautical Twilight 6:29 AM EDT 8:29 PM EDT
Astronomical Twilight 5:58 AM EDT 8:59 PM EDT
Moon 12:24 AM EDT (9/22) 3:16 PM EDT (9/22)
Length of Visible Light 13h 00m
Length of Day
12h 09m
Last Quarter, 44% of the Moon is Illuminated
Sep 22
Last Quarter
Sep 28
New
Oct 5
First Quarter
Oct 13
Full
Oct 21
Last Quarter

Hourly Weather History & Observations

Time (EDT) Temp. Heat Index Dew Point Humidity Pressure Visibility Wind Dir Wind Speed Gust Speed Precip Events Conditions
12:53 AM 66.9 °F - 60.1 °F 79% 30.20 in 10.0 mi Calm Calm - N/A   Clear
1:53 AM 66.0 °F - 60.1 °F 81% 30.19 in 10.0 mi Calm Calm - N/A   Clear
2:53 AM 64.9 °F - 60.1 °F 84% 30.19 in 10.0 mi Calm Calm - N/A   Clear
4:53 AM 64.0 °F - 59.0 °F 84% 30.18 in 10.0 mi Calm Calm - N/A   Clear
5:53 AM 63.0 °F - 59.0 °F 87% 30.19 in 10.0 mi Calm Calm - N/A   Clear
6:53 AM 62.1 °F - 57.9 °F 86% 30.21 in 10.0 mi Calm Calm - N/A   Clear
7:53 AM 62.1 °F - 57.9 °F 86% 30.24 in 10.0 mi Calm Calm - N/A   Clear
8:53 AM 64.9 °F - 60.1 °F 84% 30.23 in 10.0 mi Calm Calm - N/A   Clear
9:53 AM 73.0 °F - 61.0 °F 66% 30.22 in 9.0 mi Calm Calm - N/A   Clear
10:53 AM 79.0 °F - 59.0 °F 50% 30.21 in 10.0 mi Variable 4.6 mph - N/A   Clear
11:53 AM 82.0 °F 82.1 °F 59.0 °F 45% 30.19 in 10.0 mi Variable 3.5 mph - N/A   Clear
12:53 PM 84.0 °F 83.5 °F 57.9 °F 41% 30.17 in 10.0 mi Variable 4.6 mph - N/A   Clear
2:53 PM 86.0 °F 84.7 °F 55.9 °F 36% 30.12 in 10.0 mi North - - N/A   Clear
3:53 PM 88.0 °F 86.1 °F 55.0 °F 32% 30.08 in 10.0 mi Variable 4.6 mph - N/A   Clear
4:53 PM 88.0 °F 85.9 °F 54.0 °F 31% 30.07 in 10.0 mi Calm Calm - N/A   Clear
5:53 PM 88.0 °F 85.9 °F 54.0 °F 31% 30.06 in 10.0 mi Variable 5.8 mph - N/A   Clear
6:53 PM 87.1 °F 84.9 °F 53.1 °F 31% 30.06 in 10.0 mi Calm Calm - N/A   Clear
7:53 PM 81.0 °F 80.8 °F 55.9 °F 42% 30.06 in 10.0 mi Calm Calm - N/A   Clear
8:53 PM 73.9 °F - 57.9 °F 57% 30.08 in 10.0 mi Calm Calm - N/A   Clear
9:53 PM 72.0 °F - 57.0 °F 59% 30.08 in 10.0 mi Calm Calm - N/A   Clear
10:53 PM 69.1 °F - 57.9 °F 68% 30.09 in 10.0 mi Calm Calm - N/A   Clear
11:53 PM 68.0 °F - 57.9 °F 70% 30.09 in 10.0 mi Calm Calm - N/A   Clear